Theta_e
310 313 313 311 311 310 310 310 311 311 309 309 312 311 311 310 310 310 310 309 308 308 305 303 301 300 299 298 298 298 299 300 300 300 300 303 305 309 311 315 320 324 324 325
311 313 309 309 309 309 310 309 311 311 308 309 311 311 310 309 310 309 309 308 308 308 307 305 302 300 299 298 297 297 298 299 299 299 298 298 301 306 307 310 315 322 324 324
313 310 308 308 309 308 310 309 309 310 310 311 310 312 310 309 308 308 308 307 307 306 306 305 303 301 298 297 297 296 297 297 298 298 298 299 302 304 307 307 310 318 320 323
308 306 308 308 309 309 309 308 308 311 312 314 309 310 311 310 309 309 308 307 306 306 305 304 302 301 299 297 296 296 296 297 297 297 298 298 297 299 300 301 304 312 315 319
311 306 307 308 308 308 311 307 309 310 312 312 312 310 311 309 308 309 308 307 306 305 304 303 302 300 298 296 296 296 296 297 297 297 297 297 298 298 299 300 303 307 311 315
307 305 306 307 306 307 306 309 309 308 310 322 311 308 308 306 308 308 308 307 306 305 305 303 301 300 299 296 295 296 296 297 296 296 296 297 297 298 298 299 301 305 307 311
306 306 304 305 308 307 307 310 327 328 324 326 306 306 308 306 308 308 308 308 307 306 305 304 302 301 299 296 295 295 295 296 296 295 295 296 297 297 299 299 300 300 303 308
318 328 305 304 307 309 307 306 318 318 323 312 304 309 308 307 306 306 306 307 306 305 305 304 302 300 299 296 295 295 295 295 295 295 295 295 296 297 298 298 299 300 301 304
314 313 303 304 305 305 309 313 304 310 301 308 309 306 305 305 307 308 307 306 306 305 304 303 302 300 298 296 294 294 294 295 295 294 294 295 296 296 297 298 299 300 300 300
310 322 303 303 305 305 307 304 311 311 318 324 313 305 307 306 306 307 306 306 305 304 304 303 302 300 298 295 293 294 294 294 295 294 294 295 295 295 296 297 298 299 300 300
306 311 310 302 308 311 307 309 304 306 306 316 321 313 309 305 306 307 306 305 304 302 302 301 301 300 298 295 293 293 293 294 294 293 294 294 294 295 295 296 296 298 299 300
302 310 313 316 302 302 304 306 305 310 319 306 307 313 303 305 306 306 306 305 303 301 300 300 300 299 298 297 293 293 293 293 294 294 294 294 294 294 295 294 295 295 297 299
302 313 326 319 307 302 305 305 305 302 303 313 317 323 302 302 303 304 305 305 303 301 300 300 299 299 299 297 293 293 292 293 293 294 294 293 294 294 295 295 296 297 297 298
301 310 318 319 315 310 308 306 305 307 313 314 309 315 312 307 305 306 306 306 303 302 300 300 300 299 298 295 293 292 292 292 292 294 294 294 293 293 294 295 296 297 298 299
301 308 303 307 303 302 306 309 307 306 307 315 315 307 308 313 307 304 303 302 302 299 297 298 295 296 296 295 292 291 292 291 292 294 294 293 292 293 294 295 296 297 298 299
301 309 301 308 300 300 302 304 307 306 306 307 305 305 306 306 306 303 300 302 303 303 300 294 297 293 293 292 292 291 290 291 292 294 294 293 292 293 294 295 296 297 298 299
303 305 307 320 299 300 313 303 304 306 305 305 306 308 308 308 302 304 304 303 303 304 303 301 299 294 293 292 291 291 291 291 292 294 295 294 293 293 294 295 296 297 298 299
303 304 308 317 309 323 321 302 304 305 306 304 305 306 308 305 303 301 302 305 304 303 302 302 300 297 294 292 291 292 291 292 293 294 294 293 293 293 294 294 293 294 297 298
300 302 314 316 317 317 316 301 302 304 311 305 305 305 305 302 300 301 301 301 303 302 301 300 301 297 295 293 291 291 291 292 292 294 293 292 293 293 293 293 294 293 292 293
298 298 306 306 315 323 317 301 300 300 311 308 305 306 305 301 304 306 302 301 301 299 299 299 299 296 294 293 291 291 291 291 291 293 293 292 291 291 294 292 292 293 293 291
301 302 304 309 315 316 311 299 298 315 318 302 303 305 304 302 305 301 301 300 300 299 298 298 297 296 294 292 291 291 291 291 292 292 292 291 290 290 292 294 293 292 292 292
306 307 305 308 309 313 298 297 306 308 302 299 300 303 303 302 299 299 300 300 299 298 297 297 296 296 294 293 291 290 290 291 290 291 291 291 290 289 289 290 293 292 291 291
309 310 309 307 309 306 299 305 301 299 300 302 300 300 301 300 300 300 300 301 300 299 297 297 297 296 294 293 291 291 292 291 290 289 289 289 289 289 288 289 289 290 291 290
300 300 306 304 307 302 301 301 299 299 300 300 299 298 298 299 299 300 301 301 300 299 297 297 296 295 295 294 293 292 292 291 290 290 289 288 288 288 287 287 287 288 288 289
306 301 304 304 304 302 301 301 302 303 300 299 298 299 298 298 299 300 300 298 298 299 297 297 296 296 297 296 295 294 292 291 290 290 289 288 288 288 287 287 287 287 288 289
301 305 307 311 306 309 311 307 302 302 302 302 300 298 297 297 297 297 298 299 298 298 298 296 296 296 298 298 297 296 295 292 291 290 289 289 288 288 288 287 287 287 287 288
Wind_Speed
4 2 5 5 6 8 2 4 8 7 5 9 6 12 9 4 5 6 8 7 7 6 3 4 5 7 8 10 12 13 15 17 17 17 17 14 13 12 12 11 11 14 14 16
1 4 3 3 1 3 1 4 5 7 2 7 10 13 4 3 2 4 6 7 7 6 6 4 5 6 8 10 12 12 13 15 14 14 14 13 17 10 10 9 7 6 8 9
2 4 2 1 1 2 2 2 6 5 11 9 12 7 6 5 3 1 4 5 5 5 5 5 5 6 7 10 12 12 12 13 13 13 11 13 10 10 10 11 8 4 4 10
5 2 1 2 4 6 1 2 4 5 6 2 6 3 5 2 3 2 2 4 4 2 2 3 3 5 7 9 10 10 10 11 11 12 10 11 9 8 11 14 8 4 0 7
2 2 1 2 3 6 3 3 2 2 3 7 1 4 4 2 3 4 2 3 4 3 3 3 2 3 4 6 9 9 8 9 9 9 9 9 11 11 13 14 9 4 2 1
4 1 2 4 1 4 5 4 3 2 1 3 1 3 1 4 4 2 2 2 3 4 4 3 2 1 2 3 6 7 7 8 9 9 8 9 9 11 12 13 12 7 5 3
1 2 1 2 3 3 4 4 3 2 1 1 2 4 6 2 2 3 4 5 4 4 5 4 3 2 1 3 4 6 7 8 8 7 9 7 7 8 9 10 10 7 5 5
2 3 1 2 2 3 3 5 2 4 3 3 2 5 1 2 1 4 5 5 5 5 4 4 3 2 0 2 4 4 6 7 8 8 6 7 7 6 7 7 9 10 8 7
3 2 1 2 2 2 1 1 2 0 2 3 2 5 5 2 4 3 3 2 5 4 5 5 3 3 2 2 2 4 5 6 6 8 9 8 7 7 7 6 6 5 6 7
1 1 0 1 2 2 2 3 1 2 3 4 3 4 2 5 6 4 3 3 3 3 5 5 5 3 2 2 2 2 3 5 5 5 5 5 5 5 7 7 5 4 5 6
3 1 1 2 4 3 3 2 2 1 1 3 4 1 3 4 5 4 2 1 5 5 4 4 4 4 2 2 2 2 3 3 5 5 5 4 6 6 5 6 7 7 6 6
4 1 2 2 1 1 3 3 4 3 2 1 2 6 1 3 1 2 3 3 4 4 3 3 3 5 4 2 2 2 2 3 4 4 3 5 5 5 5 5 6 6 7 6
4 2 1 2 2 0 4 5 4 3 2 5 2 2 3 3 4 6 7 5 4 4 4 2 3 5 4 2 1 2 2 4 3 2 3 4 5 6 6 6 6 6 5 5
3 2 4 3 2 3 4 6 12 5 3 5 8 10 10 7 7 6 5 4 5 5 3 4 3 5 4 3 2 1 2 3 5 6 7 7 7 7 7 6 7 7 6 5
2 4 2 3 4 3 3 4 11 12 10 8 2 7 15 5 7 7 5 5 4 6 5 5 4 4 6 5 4 2 2 3 5 5 6 6 6 7 7 8 9 10 9 8
3 2 1 4 1 4 6 10 12 17 10 14 13 23 16 13 7 4 7 6 6 6 6 6 5 7 9 9 6 5 5 3 5 5 4 4 5 6 7 9 12 11 11 11
6 3 2 4 1 3 8 10 16 8 8 11 11 13 7 6 4 6 7 9 8 8 6 6 7 13 12 12 9 8 7 7 5 4 4 4 7 9 10 10 9 9 11 11
5 3 1 3 2 5 3 3 4 14 8 19 14 12 6 4 3 6 8 8 9 8 7 7 9 8 11 12 12 9 9 7 6 5 3 3 4 5 8 8 9 8 8 8
1 4 3 3 3 8 4 4 6 8 7 21 25 21 12 4 4 11 12 12 10 7 8 10 11 11 11 11 12 11 10 8 7 6 5 3 3 3 3 5 5 5 6 5
2 3 4 3 4 6 1 3 4 3 5 2 18 14 11 8 6 6 3 7 8 9 10 12 14 14 13 13 14 12 12 12 12 11 8 6 6 5 4 1 2 4 4 5
5 4 11 11 6 7 6 8 6 3 4 4 3 9 12 9 5 2 4 4 7 8 10 13 15 15 16 16 16 15 13 15 11 12 10 8 7 7 7 6 3 2 2 3
11 11 6 6 6 10 7 6 7 2 1 2 2 5 11 10 3 2 4 4 6 8 11 14 15 16 17 17 19 18 18 13 12 13 13 11 10 9 8 7 7 6 5 4
6 7 7 12 8 1 12 3 8 3 0 1 1 3 7 6 5 4 5 6 7 11 13 16 17 17 17 19 21 20 19 15 14 15 15 14 13 12 12 12 11 11 10 8
5 3 3 2 8 13 8 11 7 4 6 3 3 3 6 7 8 6 6 6 6 12 14 17 17 18 21 22 23 24 18 17 18 18 18 16 15 14 14 13 13 13 13 14
3 10 7 4 9 6 10 13 14 10 10 9 7 6 7 8 9 9 7 7 12 15 17 18 20 22 23 22 24 24 23 19 21 20 20 20 19 18 17 17 17 18 17 17
6 7 7 6 10 6 7 4 7 10 11 12 8 7 8 9 10 7 8 14 18 19 18 19 22 23 25 23 23 23 24 25 23 24 24 25 24 23 21 20 19 20 19 18
Wind_Direction
22 80 63 45 41 92 72 307 302 322 20 323 289 305 304 343 277 265 270 277 286 292 344 305 316 326 327 332 338 344 344 348 349 346 347 346 345 359 12 14 88 152 181 194
199 83 82 56 18 96 62 324 354 307 302 314 298 304 254 264 314 305 305 304 300 291 278 290 302 324 335 333 339 346 346 348 352 350 338 333 331 344 344 15 51 137 200 194
42 87 128 306 278 290 73 4 352 307 315 265 285 247 218 188 251 277 287 299 287 271 283 303 315 327 339 336 341 345 343 346 353 352 345 345 349 343 352 360 43 97 193 208
71 101 176 272 289 308 286 93 307 308 330 336 342 316 182 195 308 203 305 324 338 319 244 281 307 333 353 330 341 342 344 347 357 358 354 355 354 354 336 330 343 78 183 212
102 151 199 274 359 318 33 298 298 297 294 313 197 245 109 179 307 36 6 331 327 324 312 296 300 345 353 335 341 347 345 350 1 0 1 355 359 348 330 325 345 50 76 214
84 73 345 6 340 302 318 251 223 244 286 254 193 294 71 342 332 335 4 358 317 317 296 264 230 226 16 8 344 348 354 359 0 0 9 360 354 347 332 334 340 2 12 51
201 140 121 321 271 214 272 291 325 285 234 291 159 259 270 292 258 281 300 314 314 301 288 284 260 275 31 20 8 355 354 3 356 1 359 4 352 342 326 337 332 333 339 18
203 267 194 30 335 342 8 318 126 291 325 355 126 237 195 131 205 264 263 274 287 273 281 269 264 232 68 46 21 16 8 7 357 3 358 2 4 324 329 333 327 329 341 330
143 229 130 37 355 329 59 269 48 138 144 278 250 252 255 207 214 202 237 260 278 295 294 297 274 240 180 114 66 13 13 25 22 2 357 357 356 346 332 323 323 325 323 310
156 309 326 69 262 120 250 130 120 80 302 271 210 277 284 204 209 197 233 265 312 307 295 293 280 241 192 128 109 80 29 23 18 21 16 354 346 351 339 330 324 321 316 314
121 174 77 276 203 168 162 207 219 136 240 297 315 256 186 165 179 195 170 306 322 322 305 301 275 257 202 168 131 110 81 32 27 25 15 2 6 5 348 341 337 336 331 327
155 235 217 231 85 326 279 278 249 184 171 230 291 275 321 111 141 238 240 263 311 314 301 298 255 243 244 214 153 116 86 69 45 16 11 18 28 18 12 360 350 348 341 345
163 218 280 266 194 195 242 196 229 80 103 210 252 271 0 283 263 250 253 256 285 284 282 267 220 239 245 232 208 109 108 98 77 57 55 38 34 35 32 25 20 18 7 5
152 232 226 275 85 98 196 209 205 200 186 178 228 292 282 281 263 263 257 263 263 250 254 269 230 223 228 211 210 90 81 61 49 45 40 27 20 25 39 41 54 55 51 47
223 247 210 261 240 240 249 190 195 208 215 213 209 229 266 243 253 249 239 268 233 254 250 229 230 227 224 205 198 187 138 113 75 48 48 34 22 34 45 51 64 71 76 77
181 256 181 271 179 233 263 245 213 223 238 261 275 285 277 294 273 223 238 237 238 235 232 222 211 214 215 214 208 185 171 144 123 113 88 47 36 39 47 59 63 67 74 81
175 194 185 263 298 287 269 229 210 192 213 214 217 234 259 279 266 257 244 210 220 223 202 195 201 210 212 199 196 181 174 163 149 122 92 62 49 41 39 49 61 72 74 80
163 175 189 280 331 253 247 153 188 212 226 216 253 245 212 243 265 273 250 231 215 210 196 188 180 184 199 194 184 182 171 166 157 150 129 86 65 52 53 42 37 46 69 82
247 189 203 245 230 313 306 195 173 189 277 209 223 242 224 208 305 267 224 220 223 199 203 198 182 171 179 190 189 183 177 176 178 174 159 146 109 94 79 80 66 41 32 42
158 271 243 159 235 239 326 168 179 187 282 37 210 231 206 153 234 248 158 183 205 199 179 180 169 172 176 188 192 192 194 193 193 190 185 174 161 149 148 110 80 84 67 55
165 188 216 223 256 280 244 154 152 151 263 336 255 216 175 194 221 40 106 126 146 161 169 174 174 182 190 192 192 197 207 214 210 195 192 189 177 168 167 167 166 158 139 131
170 169 183 198 226 262 137 107 202 155 15 343 295 200 193 215 275 142 181 153 154 159 165 178 183 191 195 202 201 206 213 212 212 208 203 198 193 190 187 181 177 171 179 187
212 192 182 191 203 338 199 234 202 131 174 310 253 206 204 223 238 200 208 192 195 181 184 190 197 201 203 208 210 213 223 215 209 210 214 215 209 204 199 197 193 188 188 191
229 149 211 135 234 234 226 255 251 218 233 218 212 210 191 218 214 223 219 201 207 207 198 198 203 211 216 216 218 222 220 214 215 213 215 217 222 224 221 217 212 205 205 204
158 148 160 264 280 264 244 232 238 235 220 232 213 201 207 224 235 217 212 215 221 222 216 211 212 222 230 229 230 230 225 217 214 219 224 223 224 227 232 230 227 226 227 221
187 173 183 210 216 216 247 206 189 214 224 232 208 222 222 208 231 211 220 216 222 225 227 225 229 232 238 237 239 237 233 227 224 220 224 228 228 230 232 236 241 240 238 237